GFSSE_sfc_temp_273.txt.gz
Temp
76 79 80 80 80 80 80 80 80 79 79 79 79 79 79 79 79 79 79 79 79 80 80 80 80 80 80 80 79 79 79 79 79 79 79 78 78 79 79 79 78 77 77
77 79 80 80 80 80 80 80 79 79 79 79 79 79 79 79 79 79 79 79 80 80 80 80 80 80 80 80 79 79 79 79 79 79 79 79 78 78 78 78 77 77 77
77 79 81 80 80 80 79 79 79 78 78 79 79 79 79 79 79 79 79 79 80 80 80 80 80 80 80 80 79 79 79 79 79 80 79 75 76 78 78 78 77 77 76
78 78 79 80 80 80 79 79 78 78 78 78 79 79 79 79 79 79 79 80 80 80 80 80 80 80 80 80 79 79 79 79 79 79 76 78 79 78 78 77 77 77 76
78 78 79 80 80 79 79 79 78 78 78 79 79 79 79 79 79 79 79 80 80 80 80 80 80 79 79 79 79 79 79 79 80 80 74 73 72 78 77 77 77 77 76
77 76 79 80 79 79 79 79 78 78 79 79 79 79 79 79 79 79 79 79 80 80 80 80 79 79 79 79 78 79 79 79 80 77 76 76 73 77 77 77 77 76 76
76 76 78 79 79 79 80 79 79 78 78 79 79 79 79 78 78 78 79 79 80 80 80 79 79 79 78 78 78 78 78 79 77 74 76 74 73 77 78 77 76 76 75
77 76 77 79 79 79 79 79 78 78 78 78 79 79 78 78 78 78 79 79 79 79 80 79 79 78 78 78 78 78 78 79 79 77 79 72 75 77 78 77 76 76 76
80 76 75 76 78 79 78 78 78 78 78 78 78 78 78 78 78 78 78 79 79 79 79 79 78 78 78 78 78 78 78 79 74 78 82 75 76 78 78 77 76 76 76
78 77 73 74 75 75 76 78 78 78 78 78 78 78 78 78 78 78 78 78 79 78 78 78 78 78 78 77 77 77 78 79 73 75 75 74 77 78 78 77 77 76 76
81 78 77 75 73 74 75 78 78 79 78 78 78 78 76 73 74 76 77 78 78 78 78 78 78 78 78 78 78 78 79 74 72 73 76 78 77 79 78 77 77 76 76
80 80 80 79 78 78 83 75 74 76 74 74 74 74 73 73 74 79 78 78 79 78 78 78 78 78 78 76 77 79 78 75 74 77 74 78 78 79 79 78 77 77 76
83 84 83 82 81 82 82 75 76 75 74 74 74 73 73 77 74 78 77 78 74 78 75 77 76 76 76 76 77 77 76 76 72 78 80 79 78 79 79 78 77 77 76
85 86 85 85 83 85 80 77 78 78 77 76 76 76 75 73 74 76 74 75 74 75 74 75 76 77 76 76 76 76 77 77 78 78 76 79 77 79 80 79 78 77 76
87 88 87 86 84 81 80 80 80 80 79 79 78 78 78 74 74 75 76 75 77 76 76 76 78 78 79 77 78 74 77 77 79 75 74 79 77 78 79 79 78 78 77
84 88 87 86 82 82 81 80 82 81 82 80 80 79 79 76 75 75 75 76 75 76 77 79 80 80 76 74 73 77 77 73 72 72 73 76 77 77 78 79 79 78 78
83 85 82 81 81 81 80 80 80 79 81 79 81 78 78 76 76 76 74 74 75 76 78 77 77 76 76 78 77 75 71 71 71 73 72 74 74 76 77 78 78 78 78
84 83 83 89 82 80 80 79 80 80 79 79 80 77 80 78 77 76 74 74 75 75 75 74 74 74 74 74 72 68 67 68 71 70 70 71 72 75 76 77 78 78 78
80 80 81 81 80 80 80 79 80 80 79 80 79 79 79 80 79 76 75 74 75 74 74 74 73 71 69 67 70 66 68 68 69 73 71 69 69 70 76 76 76 77 77
75 76 77 78 79 78 78 78 78 75 79 79 80 81 81 81 79 76 75 75 74 73 72 70 69 69 67 64 70 67 67 66 65 67 67 69 69 68 69 73 75 74 75
73 73 74 75 75 77 77 75 76 79 76 72 70 73 72 72 74 74 74 71 70 68 67 66 65 64 65 64 62 62 62 65 66 65 65 65 67 67 70 72 73 73 73
69 70 73 74 74 74 72 73 74 73 71 71 71 72 72 71 70 69 68 70 69 67 66 65 63 62 63 63 60 58 57 60 62 64 64 66 65 67 71 73 73 72 71
68 68 69 72 74 73 74 72 72 72 70 69 70 67 69 70 70 69 68 67 67 67 65 64 64 62 60 62 62 59 56 55 57 63 65 65 65 66 68 67 72 71 69
68 69 69 69 70 71 70 71 69 66 66 67 67 67 67 68 69 68 67 66 65 65 65 66 67 65 63 61 62 63 61 60 56 56 63 64 66 64 67 66 66 70 70
69 67 67 67 67 67 68 68 71 67 67 67 67 67 66 66 66 67 66 65 64 63 63 63 64 65 66 65 64 62 62 61 61 59 58 62 64 65 66 64 65 65 66
68 66 65 64 64 65 65 65 65 64 65 63 63 63 65 62 62 64 65 63 62 61 61 61 62 62 62 62 63 62 62 61 60 61 60 62 61 62 65 63 64 64 67

GFSSE_sfc_temp_276.txt.gz
Temp
78 78 80 80 80 80 80 79 79 79 79 79 79 79 79 79 79 79 79 79 79 80 80 80 80 80 80 80 79 79 79 79 79 79 78 78 79 79 78 78 77 76 77
79 78 80 80 80 80 80 79 79 79 79 79 79 79 79 79 79 79 79 79 80 80 80 80 80 80 80 79 79 79 79 79 79 79 79 79 78 78 78 78 77 76 77
76 78 80 80 80 80 79 79 78 78 78 79 79 79 79 79 79 79 79 79 80 80 80 80 80 80 80 80 79 79 79 78 79 79 78 73 74 78 78 77 77 76 76
77 77 78 80 80 80 79 78 78 78 78 78 79 79 79 79 79 79 79 80 80 80 80 80 80 80 79 79 79 79 79 78 78 79 75 76 77 78 78 77 77 76 76
76 76 78 79 79 79 79 78 78 78 78 78 79 79 79 79 79 79 79 79 80 80 80 80 79 79 79 79 79 79 79 79 79 79 72 71 71 77 77 77 77 76 75
74 76 79 79 79 79 79 79 78 78 78 79 79 79 79 79 78 78 79 79 80 80 80 79 79 78 78 78 78 78 79 79 80 73 72 72 71 77 77 77 77 76 75
74 75 78 79 79 79 79 79 79 78 78 78 79 79 78 78 78 78 79 79 79 79 79 79 78 78 78 78 78 78 78 79 76 72 73 72 70 76 78 77 76 76 75
76 75 77 79 79 79 79 79 78 78 78 78 78 78 78 78 78 78 78 79 79 79 79 79 78 78 78 78 78 78 78 79 77 74 74 71 73 77 78 77 76 76 75
76 75 75 76 78 79 78 78 78 78 78 78 78 78 78 78 78 78 78 78 78 78 78 78 78 78 77 77 77 77 78 79 71 74 78 73 76 77 78 77 76 76 76
74 74 74 74 74 74 75 78 78 78 78 77 77 77 77 78 78 78 77 78 78 78 78 78 78 78 77 77 77 77 78 79 71 71 72 72 76 78 78 77 77 76 76
74 73 73 73 73 73 74 77 78 78 78 78 77 77 76 73 74 75 76 77 78 78 78 78 78 77 77 77 77 77 78 73 71 71 73 75 77 78 79 77 77 76 76
72 72 72 73 73 73 79 74 73 74 74 74 74 73 72 72 71 77 76 78 78 78 78 78 78 78 78 74 73 76 74 74 72 73 72 77 78 79 79 78 77 77 76
74 75 74 73 73 73 77 73 72 72 72 72 72 72 72 73 71 73 72 74 74 77 75 76 75 75 74 73 73 73 74 74 72 73 76 78 78 79 80 78 77 77 76
77 78 77 76 75 75 77 73 73 72 71 71 71 71 70 69 69 70 73 74 72 73 73 72 72 73 72 74 74 72 75 73 72 72 74 77 77 78 80 79 78 77 77
79 80 79 79 77 78 74 74 73 73 73 74 72 72 72 69 69 70 72 73 72 72 73 71 72 74 72 74 74 74 73 73 72 70 69 76 78 78 79 79 79 78 77
80 81 81 80 79 79 76 75 76 75 74 72 72 74 75 73 71 71 71 71 71 71 73 73 73 74 73 74 75 76 73 72 72 72 71 72 76 77 77 79 79 78 78
76 81 81 81 79 78 78 77 77 77 76 73 75 74 75 74 73 73 72 71 71 72 73 72 72 72 72 74 72 71 71 71 71 72 71 72 71 75 75 76 75 78 78
76 77 76 85 77 75 78 78 78 78 75 78 78 75 75 75 72 73 72 72 73 72 71 71 70 70 68 68 67 67 67 68 70 69 69 70 69 72 72 73 70 72 77
78 77 78 77 76 73 75 77 77 77 76 73 72 73 75 73 74 72 71 71 72 71 69 69 68 67 66 65 67 65 67 66 67 70 69 67 68 68 68 70 71 71 71
73 74 74 75 76 77 76 76 75 74 73 70 69 70 73 73 74 73 72 70 70 68 66 66 66 66 64 63 69 67 64 65 64 65 66 68 67 67 67 67 66 69 72
71 71 71 72 72 74 73 74 74 70 68 69 69 70 69 70 70 69 69 70 68 66 65 65 64 63 63 63 62 61 62 63 63 64 64 64 66 67 66 67 66 67 69
68 69 70 70 70 71 72 72 71 68 69 69 68 69 69 69 69 68 68 67 67 66 65 64 63 61 61 62 60 57 56 59 60 63 63 63 64 66 68 70 68 68 70
66 67 68 68 69 70 72 72 70 69 67 66 67 65 67 68 68 67 66 66 65 64 64 64 65 63 62 62 63 59 55 53 56 60 63 63 64 63 65 67 67 67 67
66 67 67 67 67 69 69 69 68 66 65 65 65 65 64 67 67 67 66 65 63 62 61 62 63 63 63 63 64 63 61 62 58 58 60 62 65 65 64 65 65 66 66
66 64 64 65 65 66 66 68 69 66 66 66 64 63 61 62 65 65 63 61 60 59 60 60 59 59 61 63 63 62 62 61 61 60 58 59 62 64 65 65 64 65 66
65 63 62 62 62 63 64 63 63 62 63 65 66 64 62 59 59 61 61 59 58 58 57 57 58 58 58 58 59 61 61 61 60 60 59 59 60 63 64 64 63 64 65

GFSSE_sfc_temp_279.txt.gz
Temp
73 77 80 80 80 79 79 79 79 78 78 79 79 79 79 79 79 79 79 79 79 80 80 80 80 79 79 79 79 79 79 79 78 79 79 79 78 78 77 77 77 76 78
76 77 80 80 80 79 79 79 78 78 78 79 78 79 79 79 79 79 79 79 79 79 80 80 80 79 79 79 79 79 79 79 79 79 79 79 78 78 77 77 77 75 77
76 77 79 79 80 79 79 78 78 78 78 78 78 78 79 79 79 79 79 79 80 80 80 80 80 80 79 79 79 78 78 78 78 78 77 72 73 78 77 77 77 77 76
77 76 77 79 79 79 79 78 78 78 78 78 78 78 78 79 79 79 79 79 79 79 79 79 79 79 79 79 79 78 78 78 78 78 73 74 76 78 77 77 77 76 75
77 75 77 79 79 79 79 78 78 78 78 78 78 79 79 79 78 78 79 79 79 80 80 79 79 79 79 79 78 78 78 78 79 78 71 70 70 77 77 77 76 76 75
75 74 78 79 79 79 79 78 78 78 78 78 79 78 78 78 78 78 79 79 79 79 79 79 78 78 78 78 78 78 78 79 79 71 71 72 70 76 77 77 77 76 75
74 74 77 79 79 79 79 78 78 78 78 78 78 78 78 78 78 78 78 79 79 79 79 79 78 78 78 78 78 78 78 79 74 70 71 71 70 76 77 77 77 76 75
76 74 75 79 78 78 79 78 78 78 78 78 78 78 78 78 78 78 78 78 79 79 79 79 78 78 77 77 77 77 77 78 75 72 72 70 73 76 78 77 76 76 75
77 74 74 75 77 79 78 78 78 77 77 77 77 77 77 77 77 78 78 78 78 78 78 78 78 77 77 77 77 77 78 79 71 72 76 70 75 77 78 77 76 76 75
76 75 73 73 73 73 74 78 78 77 77 77 77 77 77 77 77 77 77 77 78 78 78 78 78 77 77 77 77 77 78 79 71 70 71 71 76 77 78 77 77 76 76
75 75 76 74 72 72 73 75 77 78 78 77 77 77 75 72 73 74 76 77 78 78 78 78 77 77 77 77 77 77 78 73 71 70 70 75 77 78 78 78 77 77 76
71 74 75 74 73 72 77 73 72 73 73 73 73 72 72 71 71 75 75 77 78 78 78 77 77 77 77 73 72 75 72 72 72 72 70 76 77 79 79 78 77 77 76
71 73 75 73 72 72 74 71 72 71 71 72 71 71 70 71 70 71 71 71 72 75 74 74 73 72 72 72 75 73 72 72 71 72 74 77 77 79 79 79 78 77 76
71 72 73 72 71 71 71 71 71 71 70 71 70 70 69 68 68 68 69 70 70 71 71 71 71 71 71 72 72 72 71 72 71 71 71 77 77 78 79 79 79 78 77
72 73 73 73 71 71 69 70 70 70 70 70 69 69 69 68 67 67 69 69 70 70 70 70 70 71 70 71 72 72 72 71 71 70 68 75 77 77 78 79 79 78 77
76 75 75 74 73 73 71 69 71 71 70 69 69 70 70 69 68 68 69 70 69 70 70 70 70 70 70 70 71 73 72 71 71 71 69 69 75 76 77 79 79 79 79
77 77 76 75 74 74 73 70 70 70 71 69 70 71 71 70 70 70 69 69 70 70 70 70 69 69 69 71 69 70 70 71 70 71 70 70 70 74 76 77 77 78 75
73 75 75 81 75 72 73 71 69 71 71 71 71 71 71 72 70 71 70 70 69 70 69 67 67 66 67 66 66 66 66 68 68 68 68 68 68 69 73 74 75 76 75
75 73 74 75 73 71 71 72 71 72 71 70 70 71 72 71 73 70 69 69 70 68 67 68 66 66 64 64 66 66 65 66 66 68 67 68 67 67 67 70 72 72 73
72 74 75 75 73 71 72 73 72 70 68 69 68 69 71 72 72 70 69 68 67 66 65 66 65 64 63 62 66 65 64 64 64 63 64 67 66 67 66 66 66 67 72
70 71 72 72 72 73 71 70 69 67 67 66 66 68 68 68 69 68 68 67 66 65 64 65 63 62 62 61 61 60 61 62 62 62 64 63 63 66 66 66 65 67 68
68 69 70 70 70 71 70 70 68 68 66 65 65 66 67 68 68 67 65 65 66 65 65 64 63 61 61 61 59 57 55 59 60 62 62 63 62 63 66 67 67 67 67
67 67 67 68 69 70 70 69 68 68 66 64 64 64 65 67 66 66 65 64 64 62 61 61 62 62 61 61 62 62 58 56 59 61 62 61 62 62 63 65 66 67 67
66 66 66 67 67 69 70 69 68 66 64 64 63 64 64 66 65 64 63 62 60 60 59 60 60 59 61 58 61 62 60 61 58 58 61 61 63 64 63 64 66 66 66
65 65 64 64 65 66 66 67 66 64 64 63 61 61 61 61 63 63 62 59 57 57 56 56 57 56 57 56 57 58 59 59 61 59 57 59 62 63 64 65 65 65 66
62 62 63 63 62 63 65 65 66 65 63 62 64 63 62 58 60 59 59 57 56 55 55 54 55 56 55 54 53 55 55 56 58 59 57 58 58 61 63 63 64 64 64

GFSSE_sfc_temp_282.txt.gz
Temp
73 76 80 80 79 79 79 79 79 79 79 79 79 79 79 79 79 79 79 79 79 80 80 80 80 79 79 79 79 79 79 79 79 79 79 78 78 77 77 77 77 79 77
75 76 79 80 79 79 79 79 78 78 79 79 79 79 79 79 79 79 79 79 79 80 80 80 80 80 79 79 79 79 79 79 79 79 78 78 78 78 77 77 77 78 77
75 76 78 79 79 79 79 78 78 78 78 78 78 79 79 79 79 79 79 79 80 80 80 80 80 79 79 79 79 78 78 78 78 78 77 76 77 78 77 77 77 76 76
77 75 75 79 79 79 78 78 78 78 78 78 78 79 79 79 79 79 79 79 79 80 80 80 80 79 79 79 79 78 78 78 78 78 76 77 78 78 77 77 77 76 75
74 74 75 79 79 79 78 78 78 78 78 78 78 79 79 79 79 79 79 79 79 80 80 80 79 79 79 79 78 78 78 78 78 79 76 75 75 78 77 77 77 76 75
73 73 78 78 78 79 78 78 78 78 78 78 79 79 79 79 78 78 79 79 79 80 79 79 79 78 78 78 78 78 78 79 79 77 75 74 74 77 77 77 77 76 75
75 73 76 78 79 79 79 78 78 78 78 78 79 79 79 78 78 78 78 79 79 79 79 79 78 78 78 78 78 77 78 78 78 76 75 74 74 75 77 77 77 76 75
76 74 75 78 78 78 78 78 78 77 78 78 78 78 78 78 78 78 78 78 79 79 79 79 78 78 77 77 77 77 77 78 78 76 75 75 74 75 77 77 77 76 75
77 75 74 75 77 78 78 78 77 77 77 77 77 77 77 77 77 77 78 78 78 78 78 78 78 78 77 77 77 77 77 78 77 76 77 75 75 76 78 78 77 76 76
77 76 73 73 73 73 74 78 77 77 77 77 77 77 77 77 77 77 76 77 78 78 78 78 78 77 77 77 77 77 78 79 77 75 75 75 75 77 78 78 77 76 76
76 76 76 75 71 72 72 75 77 78 78 77 77 77 75 73 74 75 76 76 77 78 78 78 77 77 77 77 77 77 78 77 76 75 73 74 76 78 78 78 77 77 76
72 75 76 76 74 73 75 73 72 74 74 73 73 73 73 72 72 75 75 77 77 77 78 77 77 77 78 76 76 77 77 76 76 76 75 75 77 78 79 79 78 77 77
72 73 75 76 75 74 72 71 72 71 71 73 72 72 72 72 71 72 72 73 73 75 75 76 75 75 75 75 76 76 76 75 74 75 77 76 76 78 79 79 78 77 77
70 72 73 75 74 73 70 70 71 72 72 73 72 71 70 70 70 70 70 72 72 73 73 74 74 74 74 74 75 74 74 75 74 76 74 76 76 77 79 79 79 78 77
70 71 72 74 73 71 69 70 70 70 70 71 70 71 70 69 69 70 70 71 72 72 73 73 73 74 73 74 74 74 75 75 74 73 72 74 75 76 78 79 79 79 78
72 71 72 71 71 70 70 69 69 70 70 70 70 71 71 70 70 70 70 70 71 72 72 73 73 73 73 72 73 74 74 74 74 74 74 73 74 75 76 78 79 79 79
73 71 72 72 71 70 70 69 69 70 71 70 70 71 71 70 70 70 70 70 71 72 73 72 72 72 72 73 72 72 72 73 73 73 74 73 71 73 74 76 77 77 79
73 71 73 77 72 70 68 69 68 69 69 70 70 71 72 72 71 70 69 70 72 72 72 71 71 71 71 70 70 70 70 71 72 72 72 71 71 71 72 73 74 76 76
75 73 72 74 72 69 68 68 69 70 69 70 70 70 72 72 72 71 70 70 71 69 69 70 68 69 67 68 69 70 69 68 69 70 70 70 71 70 70 71 72 73 73
74 74 73 74 71 69 70 70 69 69 69 69 69 70 72 72 72 69 68 68 68 67 66 66 66 67 65 64 66 67 67 67 67 67 68 70 69 70 70 69 69 70 71
70 69 71 71 69 70 69 69 68 67 66 66 67 69 69 69 70 69 68 67 67 67 66 66 65 65 65 65 64 65 64 65 66 66 68 67 68 69 69 69 68 69 70
69 69 69 70 70 71 70 69 69 67 66 65 66 67 67 68 68 67 66 66 66 65 66 66 65 64 64 64 63 60 59 63 65 67 67 67 68 68 70 70 69 70 70
68 69 70 70 71 71 70 69 67 66 66 65 65 64 65 66 66 66 65 64 63 63 62 61 63 63 62 64 64 62 59 58 61 65 67 67 67 66 68 68 70 70 69
66 68 69 69 70 69 69 68 67 65 63 64 63 64 64 65 65 64 63 63 61 59 59 60 61 60 62 58 62 64 63 62 59 58 67 65 65 66 68 68 68 69 69
66 66 66 67 68 68 69 69 68 65 63 62 61 61 61 61 63 62 61 60 59 58 58 59 58 58 57 57 57 59 60 61 63 60 57 59 64 66 67 67 68 68 69
65 64 65 65 65 66 67 66 66 62 61 61 60 60 60 60 58 59 59 58 58 57 57 57 57 57 56 56 56 57 56 56 57 57 57 57 58 63 65 67 67 67 68

GFSSE_sfc_temp_288.txt.gz
Temp
97 92 80 81 80 80 80 80 80 80 80 80 80 80 79 79 80 80 80 80 80 80 80 80 80 80 80 80 79 79 79 80 80 79 79 78 78 78 78 79 80 87 77
99 92 80 80 80 80 80 80 80 80 79 79 80 79 79 79 80 80 80 80 80 80 80 80 80 80 80 80 80 79 79 79 79 79 79 79 78 78 78 79 80 82 77
97 92 88 80 80 80 80 80 79 79 79 79 79 79 79 80 80 80 80 80 80 81 81 80 80 80 80 80 80 79 79 79 78 78 79 93 89 78 78 78 78 78 77
96 92 90 79 80 79 79 79 79 79 79 79 79 79 79 80 79 79 80 80 80 80 80 80 80 80 80 80 79 79 79 79 79 79 90 93 92 78 78 78 77 77 76
95 95 87 79 79 79 79 79 78 79 79 79 79 79 79 79 79 79 80 80 80 80 80 80 80 80 80 80 79 79 79 79 80 82 91 94 93 81 78 77 78 77 76
98 97 81 79 79 79 79 79 78 79 79 79 79 79 79 79 79 79 79 80 80 80 80 80 80 79 79 79 79 79 79 79 79 94 93 89 90 77 78 78 77 77 76
98 96 89 79 79 79 79 79 79 79 79 79 79 79 79 79 79 79 79 80 80 80 80 80 79 79 79 79 79 79 79 79 90 97 95 92 93 78 78 78 77 77 76
97 95 89 80 79 79 79 79 79 78 79 79 79 79 79 78 78 79 79 79 80 79 79 79 79 79 79 79 79 79 79 79 90 96 94 96 79 77 78 78 78 77 77
98 97 91 90 84 79 78 78 78 78 78 79 79 79 78 78 78 78 79 79 79 79 79 79 79 79 79 78 78 78 78 79 90 94 95 96 77 78 78 78 78 78 77
99 99 96 93 93 90 88 78 78 78 78 78 78 78 78 78 78 78 78 79 78 79 79 79 78 78 78 78 78 78 79 80 92 98 99 95 78 78 78 78 78 78 77
98 99 99 98 96 96 94 86 79 78 78 78 79 78 79 91 90 87 84 79 78 78 78 78 78 78 78 78 78 78 79 96 99 99 98 80 78 78 79 78 78 78 77
96 97 99 98 96 96 95 90 90 90 90 89 90 87 91 92 92 91 85 78 78 78 78 79 78 78 79 97 96 82 95 99 99 98 99 80 78 78 78 79 78 78 78
98 97 98 93 92 96 96 93 94 94 93 91 89 89 90 93 92 93 94 94 92 82 94 89 91 95 96 96 97 97 96 96 99 99 93 79 78 78 79 79 79 78 78
98 96 96 94 89 92 96 93 94 94 94 92 92 88 88 89 90 90 94 96 92 95 93 93 96 94 93 93 95 95 96 97 98 97 94 79 77 78 78 79 79 79 78
95 96 96 94 89 89 88 93 93 91 91 93 90 89 92 90 89 91 92 92 93 95 94 94 94 94 94 94 96 93 94 94 94 95 95 80 77 76 77 78 79 79 79
93 94 96 93 89 90 87 89 91 90 92 91 91 91 89 90 88 90 90 91 92 93 94 94 94 92 93 94 93 93 92 92 93 91 95 94 77 76 75 76 78 78 78
93 94 92 92 91 87 87 88 90 92 94 92 92 89 88 87 87 86 90 90 91 92 91 92 92 92 91 93 91 92 92 91 91 90 91 93 91 78 77 76 76 77 77
94 90 91 94 93 87 88 89 92 93 92 92 92 91 88 88 87 86 89 90 92 90 91 91 91 89 90 87 87 88 90 90 90 88 89 89 90 90 84 77 76 76 76
92 91 89 90 93 89 87 90 90 90 90 92 92 91 88 87 88 86 89 90 86 88 88 88 88 86 85 85 86 86 86 86 86 88 85 85 86 87 88 82 78 76 75
92 91 89 90 89 89 90 88 91 92 91 92 91 91 88 89 88 87 89 85 85 87 86 87 83 87 84 84 85 86 85 86 86 87 85 87 87 86 88 85 86 87 76
91 89 88 87 86 88 88 88 89 89 87 89 89 86 87 87 87 84 87 84 84 85 84 83 83 81 83 84 81 85 87 85 83 85 87 87 86 87 87 87 87 86 87
90 87 87 87 86 86 89 89 92 89 90 88 88 85 85 85 83 84 84 83 81 81 79 80 78 81 84 82 79 81 80 84 85 86 85 85 83 86 87 86 85 84 83
88 88 87 86 86 85 88 88 86 87 82 81 80 80 78 80 79 80 81 82 80 83 82 79 79 76 81 82 77 78 76 76 79 85 83 84 80 83 84 85 82 80 78
91 90 88 87 85 85 85 86 82 83 83 86 85 82 80 80 80 79 78 78 79 83 77 78 79 78 77 78 82 81 77 75 74 74 83 83 83 82 81 83 77 78 79
92 91 88 86 85 85 84 86 83 83 87 83 82 76 77 76 76 79 78 77 76 81 76 75 76 74 80 78 78 78 76 79 77 73 71 77 80 82 83 83 80 81 80
93 91 88 85 83 84 83 83 81 83 82 76 77 77 78 79 78 77 77 76 75 75 74 76 74 73 74 75 78 76 76 74 73 71 70 71 72 77 81 82 82 82 81

GFSSE_sfc_temp_291.txt.gz
Temp
98 90 80 80 80 80 80 81 81 80 80 80 80 80 80 80 80 80 80 80 80 80 81 81 80 80 80 80 80 80 80 80 80 79 79 79 78 78 79 80 81 85 78
98 91 80 80 80 80 80 80 80 80 80 80 80 79 79 80 80 80 80 80 80 81 81 81 80 80 80 80 80 79 79 79 79 79 79 79 79 78 79 79 79 81 78
97 90 87 80 80 80 80 80 79 79 79 79 79 79 80 80 80 80 80 80 81 81 81 81 81 80 80 80 80 79 79 79 79 79 80 86 87 79 79 79 78 78 77
96 92 89 79 80 80 80 80 79 79 79 79 79 80 80 80 80 80 80 80 81 81 81 81 81 80 80 80 80 80 80 80 80 80 83 90 91 78 79 78 78 77 77
97 96 86 79 79 80 80 79 79 79 79 79 79 79 80 79 79 80 80 80 81 81 81 81 80 80 80 80 80 80 80 80 80 81 87 93 91 81 79 78 78 77 77
101 97 82 79 79 79 79 79 79 79 79 79 79 79 79 79 79 79 80 80 81 81 81 80 80 80 80 80 80 80 80 80 80 85 91 88 92 79 79 78 78 78 76
102 95 88 79 79 79 79 79 79 79 79 79 79 79 79 79 79 79 80 80 81 81 80 80 80 80 80 80 80 80 80 80 87 91 91 93 88 79 79 78 78 77 77
100 95 87 80 79 79 79 79 79 79 79 79 79 79 79 79 79 79 80 80 80 80 80 80 80 80 79 79 79 79 79 79 88 86 95 93 78 79 79 79 78 78 77
102 97 92 89 83 79 79 79 79 79 79 79 79 79 79 79 79 79 79 80 80 80 80 80 80 79 79 79 79 79 79 80 86 93 95 92 77 79 79 79 78 78 77
103 99 96 92 91 88 86 79 79 79 79 79 79 79 79 79 79 79 79 79 80 80 80 80 79 79 79 79 78 78 79 80 85 94 92 91 79 80 79 79 79 78 78
103 101 101 99 96 96 94 85 79 79 79 78 79 78 79 89 88 87 84 80 80 80 79 79 79 79 79 78 78 79 79 91 92 93 92 79 80 80 79 79 79 79 78
101 102 102 101 99 100 96 88 88 88 88 88 89 86 89 94 95 94 87 81 80 79 79 79 79 79 79 92 94 81 89 92 99 96 91 81 80 79 79 79 79 79 78
102 103 104 100 97 101 99 93 95 95 94 92 91 91 91 96 94 95 95 93 89 82 91 87 87 87 94 98 99 97 99 99 98 97 85 81 80 79 79 79 80 79 78
102 102 102 100 95 98 100 97 98 98 97 95 94 90 91 90 93 93 97 97 95 95 96 95 97 97 95 95 97 97 97 98 99 98 92 81 80 79 79 79 79 79 79
101 101 102 99 93 94 95 97 98 97 97 97 95 92 94 93 92 94 94 95 96 97 97 96 96 96 95 95 96 95 95 94 95 96 96 81 79 78 78 78 79 79 79
100 100 101 98 93 95 92 94 95 95 96 96 95 95 91 93 91 93 92 92 94 95 96 96 94 93 93 95 90 90 91 94 94 93 95 93 79 79 78 78 78 78 78
99 99 98 97 94 91 91 92 93 96 97 95 95 92 91 90 90 88 92 92 94 95 94 93 93 93 85 86 87 87 91 92 86 85 92 93 86 77 79 78 77 77 77
98 95 96 99 96 90 91 91 94 96 95 96 95 94 91 90 89 88 90 91 93 93 93 93 88 82 90 88 89 91 91 90 90 87 89 89 90 90 84 79 77 77 78
97 95 93 95 97 92 90 92 93 93 94 96 95 95 91 90 91 87 91 92 90 91 91 91 90 85 87 84 89 87 89 89 88 90 88 88 87 89 89 83 78 77 77
97 95 93 94 94 91 92 91 94 95 94 95 95 94 92 91 90 89 90 88 88 88 89 83 84 86 84 82 87 87 87 88 88 88 88 89 90 88 89 86 86 88 78
96 93 91 90 89 91 91 90 92 91 92 94 94 93 92 90 92 89 88 85 86 84 84 83 83 80 85 84 81 85 88 87 85 86 88 88 87 87 87 88 88 86 79
94 92 91 90 89 90 92 91 93 94 95 94 94 90 90 90 89 86 86 86 83 82 82 79 80 81 84 84 78 79 79 85 84 87 87 86 83 86 88 87 85 81 80
95 92 90 89 89 88 90 92 92 93 93 91 90 86 84 85 84 85 84 83 83 83 82 80 80 78 80 83 80 77 75 74 78 85 84 86 82 83 85 85 82 81 81
97 95 92 90 89 88 88 89 85 88 87 87 88 87 82 82 83 83 83 82 81 85 79 79 80 77 77 79 82 83 79 77 72 72 82 84 83 82 82 84 84 81 81
99 96 94 90 89 89 87 87 88 85 89 89 89 80 80 80 82 81 81 80 79 83 77 77 77 75 81 77 79 79 78 80 79 74 70 75 80 82 83 83 82 83 82
106 100 95 90 87 87 87 85 85 83 86 88 86 79 80 80 79 79 80 79 78 76 76 77 76 75 74 75 77 77 77 75 74 73 71 72 73 77 81 83 83 84 82

GFSSE_sfc_temp_297.txt.gz
Temp
75 77 80 80 82 81 80 80 80 80 80 79 79 79 79 79 79 80 80 80 80 80 80 80 80 80 80 80 80 79 79 79 79 79 79 79 79 79 80 80 79 78 78
76 77 79 80 81 82 82 80 80 80 79 79 79 79 79 79 79 79 80 80 80 80 80 80 80 80 80 80 80 80 79 79 79 79 79 79 79 79 79 79 78 77 77
75 76 79 79 80 81 81 81 80 79 79 79 79 79 79 79 79 79 79 80 80 80 80 80 80 80 80 80 80 80 80 80 80 79 79 77 76 80 79 79 78 77 77
76 75 76 79 79 80 80 79 79 79 79 79 79 79 79 79 79 80 79 80 80 80 80 80 80 80 80 80 80 80 80 80 80 80 77 79 81 79 79 79 78 77 77
77 75 77 79 79 79 79 79 78 78 78 79 79 79 79 79 79 79 79 80 80 80 80 80 80 80 80 80 79 79 79 79 80 80 75 76 75 80 79 78 78 78 77
76 74 78 79 79 79 79 79 78 78 79 79 79 79 79 79 79 79 79 79 80 80 80 80 80 79 80 79 79 79 79 79 80 73 76 79 74 79 79 79 79 78 77
75 74 77 79 79 79 79 79 79 79 78 79 79 79 79 79 78 79 79 79 80 80 80 80 80 79 79 79 79 79 79 79 77 74 78 77 74 78 79 79 79 78 77
76 75 76 79 79 79 79 78 78 78 78 78 79 79 79 78 78 79 79 79 79 80 80 80 79 79 78 78 78 78 78 79 79 75 77 74 75 78 79 79 78 78 77
79 74 74 75 77 79 78 78 78 78 78 78 78 78 78 78 78 78 78 79 79 79 79 79 79 78 78 78 78 78 78 79 77 74 79 75 77 79 80 79 78 78 77
78 76 71 71 73 72 74 78 78 78 78 78 78 78 78 78 78 78 77 78 79 79 79 78 78 78 78 78 78 78 78 80 75 72 75 75 78 79 80 79 79 78 78
80 77 75 74 71 72 72 76 77 78 78 78 78 78 76 72 73 76 77 78 78 79 79 78 78 78 78 78 78 78 79 75 72 73 73 77 79 80 80 79 79 78 78
79 79 79 77 76 76 80 74 72 75 73 72 73 73 72 71 73 79 78 79 79 79 79 79 79 79 78 76 77 79 79 78 76 74 75 79 79 80 80 79 79 78 78
83 83 82 80 79 80 79 73 73 73 72 73 73 72 71 76 75 77 77 79 74 78 75 78 77 75 75 77 79 79 78 79 77 79 82 79 79 80 80 79 77 77 78
85 86 84 83 82 82 77 75 76 76 75 74 75 75 73 73 74 77 73 74 74 75 73 73 77 77 78 78 78 75 77 81 78 77 77 79 78 80 81 79 79 78 78
87 88 86 85 83 83 77 78 79 79 78 78 78 78 77 75 75 76 77 75 76 76 76 78 78 77 80 79 79 81 80 80 76 75 73 79 78 79 79 79 79 79 78
86 87 88 86 84 81 80 80 81 82 81 80 80 80 79 76 75 76 76 77 78 78 78 79 79 79 79 80 76 81 80 81 78 74 72 77 78 77 79 79 79 79 79
84 86 85 86 84 82 81 81 81 83 84 81 81 80 79 77 76 76 75 75 77 77 81 81 80 80 80 79 77 81 81 82 80 79 78 75 77 77 78 79 79 79 79
82 82 86 90 85 80 78 78 78 79 77 78 79 78 80 78 77 76 75 76 77 77 79 79 75 74 77 73 73 74 77 78 81 81 79 79 78 76 77 78 78 78 79
85 82 84 84 83 81 77 77 77 78 78 78 78 79 79 79 79 75 75 76 77 77 76 75 74 73 71 71 74 73 72 73 76 78 76 76 75 76 73 77 78 77 77
84 86 85 82 83 83 79 76 75 74 75 79 81 80 80 80 80 77 75 74 76 73 72 73 72 72 71 70 76 73 69 70 72 73 73 75 73 73 72 73 73 73 76
84 84 84 80 80 81 80 79 79 79 77 79 77 80 81 80 80 77 76 75 75 73 72 72 71 70 68 69 66 66 65 68 71 70 69 69 71 71 71 70 69 69 71
83 84 85 83 80 81 83 82 81 82 79 82 77 78 80 80 80 79 77 75 74 72 71 70 69 66 66 67 64 59 59 65 66 69 67 69 67 68 71 71 71 70 68
83 83 83 84 81 81 82 81 77 75 74 75 79 76 79 80 79 79 77 75 73 71 69 69 68 66 63 65 65 62 56 55 58 63 65 64 64 64 65 67 69 70 69
72 77 80 81 84 82 81 80 80 80 80 82 83 83 78 80 78 76 75 74 72 70 68 66 67 64 62 61 63 66 63 61 56 55 60 61 62 64 62 64 64 67 69
71 69 69 72 77 80 80 82 81 81 82 75 80 75 76 73 75 76 72 72 69 69 67 66 64 63 62 60 60 60 59 59 58 55 51 55 59 60 62 62 64 64 66
72 68 65 67 70 67 66 66 68 69 74 74 78 74 74 73 73 73 74 71 68 66 66 64 63 62 60 59 59 59 58 56 54 54 51 51 52 57 59 60 61 61 61